OBJECT H, 55016

Orbit data source: Space-Track

You're viewing an Uncataloged Satellite

Recently launched and/or uncataloged satellites may have evolving metadata. Metadata may include but not limited to: Owner, Maufacturer, Bus, Motor, and Mission.

OBJECT H, 55016 is a satellite in SSO that was launched on Tue, 03 Jan 2023 UTC via an FALCON 9 launch vehicle from the Air Force Eastern Test Range (AFETR). Unknown objects in Earth's orbit typically refer to objects detected orbiting the Earth but have not yet been identified or cataloged. These objects could be anything from previously untracked satellites, spent rocket stages, debris from satellite collisions, or even natural meteoroids temporarily captured by Earth's gravity.

Loading next visibility...
Identifier
55016, 2023-001H
Orbit
SSO
Country
Flag of TBDTBD
Related business
None
Manufacturer
Unknown
Mission
Non-operational Commercial Technology
Bus & Motor
Unknown
Mass
Unknown
Launch date (UTC)
2023-01-03 (3 years ago)
Launch vehicle
FALCON 9
Launch site
Air Force Eastern Test Range (AFETR)
Object type
Unknown
Shape & HBR
Box + 2 Pan, 0.1 m
Radar Cross Section
0.080 m², Medium (>0.1 m² and < 1m²)

Expand to show TLE details & history
Last TLE update: 11 hours ago

TLE from 11 hours ago
0 OBJECT H
1 55016U 23001H   25286.63506856  .00016904  00000-0  51332-3 0  9992
2 55016  97.3534 345.9814 0006049 277.4100  82.6455 15.34131289154326
Epoch: 2025-10-13T15:14Z
TLE epoch observation values (Epoch: 2025-10-13T15:14:29.923Z)
Latitude
-0.00008°
Longitude
94.92171°
Altitude
466.086 km
Speed
7.634 km/s
True Right ascension
23h 03m 55s
True Declination
0° 00' 00"
Sunlit
Object was in full shadow at epoch
Visualization orbit readout
Latitude
Unknown
Longitude
Unknown
Altitude
Unknown
Speed
Unknown
Apparent Right ascension
Unknown
Apparent Declination
Unknown
Sunlit
N/A
Visualization observer readout
Local Sidereal Time
20:41:05
Azimuth
Unknown
Elevation
Unknown
Doppler factor
Unknown
Orbital elements
Apogee altitude
464.583 km
Perigee altitude
456.31 km
Semi-major axis
6,838.584 km
Eccentricity
0.0006
Inclination
97.3534°
RAAN
345.9814°
Arg. of periapsis
277.41°
True anomaly
82.71425°
Mean anomaly
82.6455°
Eccentric anomaly
82.67988°
Mean motion
3.8379 °/min
Orbital period
93.8 mins
BSTAR
0.00051332
Loading maneuver chart data...
Computing Atmospheric mass density...

Documentation

Showing up to 5 results
|